Theta_e
311 311 312 312 315 318 318 317 317 317 318 324 326 326 326 326 325 323 323 324 322 318 315 315 313 312 311 311 310 309 309 309 309 310 310 310 309 309 310 310 311 310 310
310 310 310 311 312 314 316 317 317 316 316 318 324 326 326 324 324 324 324 320 319 316 315 313 311 311 311 310 309 308 308 308 308 308 309 308 308 308 310 310 310 309 309
309 310 311 310 311 311 313 315 316 316 316 317 321 325 325 325 324 324 322 320 316 314 312 312 311 311 310 309 308 308 308 307 308 308 307 306 306 306 306 306 307 308 307
309 308 308 310 311 311 312 312 314 315 315 317 321 323 324 324 323 320 316 315 313 312 311 311 310 309 308 307 307 306 306 304 305 305 305 305 305 305 305 305 305 306 306
305 306 308 308 309 311 312 312 313 314 314 315 316 316 317 316 315 314 313 312 311 310 310 310 309 308 307 306 306 304 303 304 304 304 304 304 303 303 303 303 304 304 304
304 303 304 306 308 308 311 312 312 312 313 313 313 314 313 313 312 311 311 310 310 310 309 308 307 305 304 302 301 301 302 302 302 303 303 302 302 302 302 302 302 302 302
303 302 302 303 306 307 308 311 311 311 311 311 312 312 311 311 310 309 309 309 308 307 306 305 304 302 301 301 301 301 301 300 300 301 301 301 301 301 300 301 301 301 300
302 302 302 302 304 307 307 308 311 310 310 310 310 310 309 309 308 308 308 307 306 305 305 304 303 303 301 300 301 301 300 300 298 295 296 298 299 298 298 298 298 298 297
301 301 302 303 304 306 307 307 308 310 310 310 309 309 308 308 307 307 307 306 305 304 304 302 302 302 301 301 301 300 300 296 292 290 290 290 290 291 293 294 294 294 293
300 301 301 302 304 306 306 307 307 309 309 309 308 308 307 307 307 306 307 306 305 304 303 302 302 301 300 300 299 298 299 293 289 289 289 289 289 289 290 291 291 290 290
298 299 300 300 303 305 306 306 307 307 308 308 308 308 307 307 306 306 307 306 305 303 302 302 302 301 299 298 297 298 292 290 289 289 289 289 288 288 288 288 288 287 287
293 296 298 299 301 304 304 305 307 307 307 307 307 307 307 307 306 306 306 306 304 302 301 301 301 299 298 296 297 291 289 289 289 289 289 288 288 288 288 287 287 287 287
291 291 293 297 299 301 303 304 305 306 307 307 307 307 307 307 306 306 305 305 303 301 300 299 299 298 297 296 294 288 288 288 288 288 288 288 288 288 287 287 287 287 287
290 290 290 291 294 298 301 303 303 304 305 305 306 306 306 306 305 305 305 303 300 300 299 299 298 296 295 293 288 288 288 288 288 287 287 287 288 287 287 287 287 287 287
290 290 290 290 291 293 297 300 301 302 302 304 304 305 305 305 306 306 304 304 302 300 299 299 298 294 290 288 288 289 288 288 287 287 287 287 287 287 287 286 286 287 287
289 289 290 290 290 291 292 295 298 300 300 301 302 302 303 303 303 302 302 301 300 299 298 298 298 297 292 288 288 288 288 288 288 288 287 288 288 287 287 287 287 287 288
288 289 289 289 289 290 290 292 293 297 299 299 300 301 301 302 302 301 301 300 299 297 297 297 297 297 296 289 288 288 288 288 288 287 287 288 288 287 287 287 287 287 288
288 288 288 289 288 289 289 291 291 293 296 299 298 299 300 300 300 300 300 299 298 297 297 298 298 297 296 293 289 287 287 287 287 287 288 288 288 287 287 287 287 287 287
288 288 287 288 287 288 288 289 290 292 294 295 297 298 299 298 299 299 298 298 299 299 299 299 298 297 297 296 292 287 287 287 287 288 287 287 287 287 287 287 287 286 286
288 288 288 286 287 287 287 287 288 290 292 293 295 296 297 297 297 297 298 298 298 299 299 298 298 297 296 296 294 288 288 288 288 288 288 287 287 287 287 287 286 287 287
287 287 287 287 287 287 286 286 287 288 290 291 293 295 295 296 297 298 298 298 299 299 298 297 296 296 296 295 294 288 288 288 288 288 288 288 287 287 287 287 290 289 287
287 287 286 286 286 285 285 286 288 287 288 290 291 293 294 294 296 297 298 298 299 299 298 298 296 295 296 296 292 289 289 288 288 288 288 288 288 288 288 289 292 290 289
287 285 285 286 285 285 285 285 286 287 288 289 290 291 293 294 295 296 297 298 298 298 298 298 296 296 295 295 296 292 289 289 289 291 289 291 294 293 291 292 292 291 290
286 285 285 285 285 285 285 286 287 287 287 288 289 291 292 294 294 296 297 297 298 298 298 298 296 296 296 296 294 292 292 291 291 292 294 294 294 293 293 292 292 291 289
285 286 285 285 285 285 285 285 285 286 287 288 289 290 291 292 294 295 296 297 298 298 298 297 297 297 297 296 295 293 293 294 294 294 294 294 293 293 293 292 291 289 288
285 285 284 284 284 284 284 285 285 286 287 288 289 290 291 291 292 294 296 297 297 298 298 297 297 297 297 296 295 295 295 295 295 294 294 293 293 292 292 291 290 289 288
Wind_Speed
4 2 4 8 10 12 13 13 14 15 17 20 22 23 23 22 23 24 24 24 23 22 21 20 21 20 20 20 20 20 21 20 20 21 21 17 16 17 17 18 18 19 20
5 6 7 8 8 9 12 14 15 16 16 17 20 23 24 24 24 25 25 24 23 22 20 21 21 19 20 21 21 20 21 19 19 20 20 18 16 16 16 17 18 20 18
10 9 8 9 10 11 12 12 14 15 17 17 19 22 25 27 27 26 25 24 23 22 21 20 21 21 21 21 22 22 21 20 18 20 22 19 18 17 18 19 18 18 17
13 13 13 11 10 11 13 14 15 15 15 16 18 20 23 24 25 24 23 23 22 22 21 21 22 22 21 21 22 22 23 21 19 20 22 21 19 19 20 20 21 21 18
13 13 14 15 15 14 13 14 15 16 16 16 16 18 20 21 22 23 22 21 21 21 20 21 21 22 24 24 24 23 20 19 19 21 22 21 20 19 19 18 18 18 18
17 17 16 15 15 16 17 16 16 17 19 19 20 21 22 23 23 22 21 20 21 21 20 20 20 21 21 21 20 18 19 20 20 21 20 22 21 20 19 18 17 16 16
19 19 18 18 15 15 18 20 19 20 20 22 23 24 24 24 23 22 21 20 21 20 19 18 17 17 16 16 14 15 15 16 17 17 20 19 18 16 15 16 16 16 18
20 19 19 19 18 17 17 21 23 23 22 23 23 24 24 23 22 21 20 19 20 18 17 16 16 13 13 13 13 13 13 12 11 11 14 15 15 14 14 14 14 16 16
19 18 18 19 19 18 19 19 24 25 24 23 24 24 24 23 22 21 21 19 17 17 15 15 14 12 11 12 13 12 12 12 11 10 9 9 11 12 12 12 13 13 13
18 19 20 20 20 20 19 20 21 26 25 25 24 24 24 23 22 22 21 18 17 16 16 15 15 13 13 14 14 15 14 13 12 10 8 8 9 10 11 12 12 12 12
17 17 17 18 20 20 21 20 22 25 27 26 26 26 26 25 24 23 23 21 18 19 17 16 16 15 17 17 16 16 14 13 13 11 10 10 9 9 10 10 10 10 11
19 18 17 17 19 20 20 19 20 23 28 28 28 29 28 27 26 25 24 23 21 20 17 16 16 17 19 19 16 15 15 14 13 13 13 12 11 11 11 9 8 9 9
21 21 20 19 18 18 20 19 18 19 26 32 32 31 30 30 28 27 25 26 24 22 18 16 16 17 20 18 16 16 16 14 14 14 14 13 12 12 10 10 9 9 7
21 21 23 22 21 18 19 19 19 20 22 30 35 35 33 31 29 27 27 29 28 25 20 16 16 17 18 18 19 18 18 15 14 14 14 14 12 11 11 11 10 9 8
20 22 22 24 24 22 21 21 21 21 23 24 30 33 34 33 29 27 26 28 31 29 19 20 20 22 22 22 22 19 19 18 17 16 15 14 13 13 13 12 11 11 10
21 21 23 25 24 26 25 24 23 20 22 23 25 28 28 28 27 25 25 26 27 26 26 26 25 25 25 25 24 23 23 21 18 17 16 16 15 14 14 13 13 13 12
24 24 25 25 22 23 26 25 25 24 23 21 25 27 27 27 27 26 24 25 25 28 31 29 29 26 26 26 25 25 23 21 18 18 17 16 15 15 16 16 14 14 13
22 22 22 24 23 23 24 24 22 23 25 24 22 25 26 27 26 24 23 23 26 29 31 30 31 30 29 27 27 26 24 23 21 20 19 18 17 17 17 17 16 15 14
25 27 25 22 22 23 24 26 24 24 25 24 23 23 24 27 26 25 25 29 31 31 31 31 30 31 29 28 28 25 24 23 22 21 20 19 18 18 18 19 18 16 17
27 28 26 22 23 25 26 27 24 24 24 25 25 23 22 24 28 29 30 31 32 32 30 29 28 28 26 26 28 25 25 25 25 24 22 20 19 19 19 19 19 19 20
28 29 27 23 23 26 26 26 23 24 25 24 25 24 20 21 29 32 33 33 34 32 29 26 25 26 25 24 26 26 25 25 25 23 22 21 20 20 19 20 21 21 21
28 27 25 22 22 27 26 25 24 22 23 23 24 24 20 20 23 30 32 33 31 29 25 22 23 25 24 24 25 26 25 25 23 22 20 19 19 21 23 23 24 24 24
26 24 23 23 25 25 24 22 20 19 21 21 21 22 22 19 21 25 28 28 28 26 24 23 22 22 23 24 25 23 24 24 20 19 21 23 23 25 27 26 26 26 25
24 21 22 24 24 23 21 21 21 22 24 24 22 21 20 19 19 21 21 22 22 22 22 22 22 20 21 25 25 24 25 25 27 29 32 29 25 24 25 26 26 26 25
22 25 26 26 24 22 22 22 23 26 25 21 21 19 20 19 19 19 20 19 19 20 21 21 21 21 24 25 26 27 26 26 25 24 24 25 25 24 24 24 24 24 24
26 26 25 24 25 26 25 25 24 22 20 20 20 19 18 19 20 20 20 19 19 19 20 20 21 21 21 23 24 24 24 24 24 24 24 23 22 22 22 22 21 21 21
Wind_Direction
35 344 276 254 248 242 241 243 244 242 236 232 231 231 229 228 221 221 224 225 227 230 236 248 256 260 264 267 267 267 264 260 258 261 265 276 271 277 273 273 262 272 268
360 331 318 305 285 268 252 243 243 242 241 238 231 225 223 220 224 226 227 226 230 235 244 252 257 261 262 263 265 265 262 260 258 262 264 268 274 271 270 265 265 266 267
348 332 308 299 295 284 273 262 251 244 240 237 233 227 223 223 226 225 225 229 234 242 248 254 259 263 263 265 264 260 261 259 249 250 264 268 266 266 269 271 274 276 271
351 338 324 309 294 280 272 269 263 256 247 238 230 224 223 221 219 219 223 232 239 244 249 254 257 261 261 260 257 256 254 254 251 251 256 262 266 268 268 269 268 267 266
333 329 328 319 301 287 272 260 257 252 246 239 231 225 221 221 223 225 229 236 243 246 253 258 261 261 261 257 252 250 248 246 249 253 259 262 264 265 267 268 265 263 263
316 315 311 307 306 285 271 263 254 249 247 245 242 237 234 233 232 232 233 236 242 246 249 256 260 262 256 246 241 247 248 249 251 250 255 258 263 266 264 260 258 258 260
310 305 301 296 291 283 267 256 251 247 244 242 239 237 235 232 231 231 233 239 241 245 247 252 260 260 247 244 246 246 254 256 254 249 250 257 261 260 256 251 250 254 258
311 307 301 296 292 285 272 256 248 245 243 240 237 235 234 233 231 234 236 237 238 242 249 259 261 261 248 244 251 256 259 250 249 250 250 245 245 245 243 243 244 246 252
309 309 305 300 295 290 283 265 247 244 243 243 237 232 232 232 234 236 240 237 241 244 250 252 258 254 247 239 247 247 244 245 243 245 246 249 250 246 240 237 239 242 245
310 305 304 307 302 295 289 277 259 244 241 242 239 236 234 235 236 240 245 246 247 250 249 249 255 254 240 238 239 238 233 240 241 241 240 239 239 236 229 225 229 230 239
316 312 302 298 301 296 290 287 273 253 241 239 239 238 238 239 240 242 248 250 248 247 248 250 254 248 234 232 232 230 229 233 235 235 235 232 232 230 228 227 228 230 231
313 311 309 297 298 300 297 287 277 263 244 239 238 238 239 240 240 241 246 251 247 246 246 248 248 237 228 231 226 223 228 231 234 232 232 231 232 234 233 228 228 229 229
315 312 312 310 296 293 298 294 283 268 250 241 239 240 241 242 242 241 244 249 247 239 239 246 246 241 229 227 222 222 229 228 228 229 229 227 226 229 228 226 224 220 217
317 317 318 312 303 293 282 285 283 272 258 248 242 239 239 242 243 242 240 237 237 233 230 239 247 239 225 221 224 222 227 226 226 224 223 223 223 223 222 223 219 215 216
317 320 319 314 310 299 290 277 278 272 269 260 254 249 245 243 244 251 251 243 234 237 227 232 233 228 221 220 221 221 223 222 221 219 219 219 220 221 221 219 215 213 215
312 313 312 313 308 304 296 286 266 274 269 265 260 251 248 247 245 245 246 243 233 229 224 228 230 232 230 227 227 228 228 226 224 220 221 222 222 223 222 221 217 219 233
301 305 305 305 302 300 302 299 290 270 274 266 259 253 247 243 240 241 242 234 222 217 228 231 235 236 234 231 230 231 231 229 225 226 226 224 224 224 224 221 222 232 241
299 299 300 295 294 295 297 297 293 283 281 279 266 250 243 239 236 237 230 218 215 216 230 236 238 237 236 227 230 230 226 224 223 226 226 225 226 229 230 230 236 241 244
305 307 307 301 292 293 292 293 288 284 280 277 278 264 249 243 239 239 228 218 219 221 228 238 239 239 238 237 225 227 226 227 227 230 231 229 229 231 233 235 240 243 246
305 306 305 298 297 289 293 294 286 285 283 278 274 272 264 246 231 230 224 222 224 227 233 239 241 241 237 233 224 224 225 225 226 228 230 231 232 235 238 237 241 249 251
307 305 303 294 292 287 290 294 287 285 283 279 276 272 273 255 239 230 230 226 228 230 232 236 239 241 236 228 221 221 222 225 228 229 230 231 234 238 239 242 251 249 249
304 302 299 296 289 282 290 289 286 282 282 282 276 270 270 262 243 233 232 233 234 235 236 237 240 237 232 224 217 219 221 225 225 228 228 231 239 244 245 249 253 249 250
303 301 296 293 288 289 289 287 282 280 283 279 277 272 263 260 246 234 231 231 233 235 234 233 235 233 227 222 213 220 224 226 228 239 235 242 256 251 247 251 252 251 251
301 296 293 295 294 294 286 283 278 276 286 281 275 268 260 254 247 238 234 229 230 232 232 230 228 225 216 209 212 221 225 230 231 238 251 249 253 249 247 247 249 254 251
305 300 298 295 290 287 285 279 280 284 284 274 273 266 257 250 243 237 235 230 228 231 230 227 225 221 216 217 223 227 229 239 244 245 245 242 245 246 246 250 250 249 244
290 292 292 287 285 284 284 284 281 281 277 272 269 266 255 246 239 235 232 230 228 231 231 229 225 223 222 222 225 229 233 237 238 238 240 241 240 241 244 245 241 238 235